Skip Page Navigation
NASA JPL Caltech
NASA Logo - Jet Propulsion Laboratory + View the NASA Portal
+ Center for Near-Earth Object Studies
JPL Home Earth Solar System Stars & Galaxies Technology
JPL Solar System Dynamics
BODIES ORBITS EPHEMERIDES TOOLS PHYSICAL DATA DISCOVERY FAQ SITE MAP

Significant website upgrade scheduled for September 27. More details available here.

JPL Small-Body Database Browser
Search: [ help ]  
79962 (1999 CR119)
Classification: Main-belt Asteroid          SPK-ID: 2079962
Ephemeris | Orbit Diagram | Orbital Elements | Mission Design | Physical Parameters | Discovery Circumstances | Close-Approach Data ]

[ show orbit diagram ]
Orbital Elements at Epoch 2459396.5 (2021-Jul-01.0) TDB
Reference: JPL 27 (heliocentric ecliptic J2000)
 Element Value Uncertainty (1-sigma)   Units 
e .2846183794266338 3.181e-08  
a 3.082656456087562 1.8422e-08 au
q 2.205275771226871 9.9607e-08 au
i 14.66803952059337 7.3702e-06 deg
node 17.12787149081106 1.4557e-05 deg
peri 69.15700723170667 2.0316e-05 deg
M 75.23816034253569 1.2007e-05 deg
tp 2458983.336653984130
(2020-May-13.83665398)
6.4963e-05 TDB
period 1976.906451308116
5.41
1.7721e-05
4.852e-08
d
yr
n .1821026987704898 1.6324e-09 deg/d
Q 3.960037140948254 2.3665e-08 au
  Orbit Determination Parameters
   # obs. used (total)      1027  
   data-arc span      9928 days (27.18 yr)  
   first obs. used      1994-04-02  
   last obs. used      2021-06-07  
   planetary ephem.      DE441  
   SB-pert. ephem.      SB441-N16  
   condition code      0  
   norm. resid. RMS      .47445  
   source      ORB  
   producer      Otto Matic  
   solution date      2021-Jul-08 23:10:14  

Additional Information
 Earth MOID = 1.2687 au 
 Jupiter MOID = 1.72028 au 
 T_jup = 3.116 
[ show covariance matrix ]

Ephemeris | Orbit Diagram | Orbital Elements | Mission Design | Physical Parameters | Discovery Circumstances | Close-Approach Data ]

Physical Parameter Table
Parameter Symbol Value Units Sigma Reference Notes
absolute magnitude H 14.47   n/a MPO637112  
diameter diameter 4.598 km 0.118 urn:nasa:pds:neowise_diameters_albedos::2.0[mainbelt] (http://adsabs.harvard.edu/abs/2011ApJ...741...68M)  
geometric albedo albedo 0.210   0.028 urn:nasa:pds:neowise_diameters_albedos::2.0[mainbelt] (http://adsabs.harvard.edu/abs/2011ApJ...741...68M)  

79962 (1999 CR119)          Discovered 1999-Feb-11 by LINEAR at Socorro
Reference: 20040504/Numbers.arcLast Updated: 2004-07-16

[ show close-approach data ]
Ephemeris | Orbit Diagram | Orbital Elements | Mission Design | Physical Parameters | Discovery Circumstances | Close-Approach Data ]
ABOUT SSD CREDITS/AWARDS PRIVACY/COPYRIGHT GLOSSARY LINKS
FirstGov 2021-Sep-22 00:45 UT
(server date/time)  
NASA Home Page
Site Manager:   Ryan S. Park
Webmaster  Alan B. Chamberlin